Location: Doverdale
(52.2833°N, 2.2000°W)
Time: 01:28:30
(UTC+00:00)

USA 215 - Pass Details

Date: 29 October 2020
Orbit: 1102 x 1106 km, 123.0° (Epoch: 23 November)

Event Time Altitude Azimuth Distance (km) Brightness Sun altitude
Exits shadow 18:10:08 18° 79° (E) 2,426 4.4 -13.5°
Maximum altitude 18:15:04 60° 5° (N) 1,247 3.5 -14.3°
Drops below altitude 10° 18:21:29 10° 287° (WNW) 2,966 6.7 -15.3°
Sets 18:24:00 0° 284° (WNW) 3,924 7.7 -15.7°
